Ibiza, Spain

4:02 AM CEST on July 27, 2017 (GMT +0200)
Ibiza

Weather History for LEIB - January, 2014

Change the Weather History Date:

Thursday, January 16, 2014

  Actual Average Record
Temperature  
Mean Temperature 58 °F -  
Max Temperature 63 °F 57 °F 63 °F (2014)
Min Temperature 53 °F 45 °F 39 °F (2016)
Degree Days  
Heating Degree Days 7    
Growing Degree Days 8 (Base 50)    
Moisture  
Dew Point 56 °F    
Average Humidity 88    
Maximum Humidity 100    
Minimum Humidity 74    
Precipitation  
Precipitation 0.02 in 0.04 in - ()
Sea Level Pressure  
Sea Level Pressure 29.87 in    
Wind  
Wind Speed 11 mph ()    
Max Wind Speed 16 mph    
Max Gust Speed 16 mph    
Visibility 5.8 miles    
Events Rain    
Averages and records for this station are not official NWS values.
T = Trace of Precipitation, MM = Missing Value Source: Averaged Metar Reports

Daily Weather History Graph

Daily Weather History Graph

Search for Another Location

Airport or City:

Trip Planner

Search our weather history database for the weather conditions in past years. The results will help you decide how hot, cold, wet, or windy it might be!

Date:

Astronomy

Jan. 16, 2014 Rise Set
Actual Time 8:11 AM CET 5:57 PM CET
Civil Twilight 7:42 AM CET 6:26 PM CET
Nautical Twilight 7:09 AM CET 6:59 PM CET
Astronomical Twilight 6:37 AM CET 7:31 PM CET
Moon 6:34 PM CET (1/16) 7:56 AM CET (1/16)
Length of Visible Light 10h 44m
Length of Day
9h 46m
Full, 100% of the Moon is Illuminated
Jan 16
Full
Jan 24
Last Quarter
Jan 30
New
Feb 6
First Quarter
Feb 15
Full

Hourly Weather History & Observations

Time (CET) Temp. Dew Point Humidity Pressure Visibility Wind Dir Wind Speed Gust Speed Precip Events Conditions
12:00 AM 58 °F 54 °F 84% 29.96 in - SW 13.8 mph - -  
12:00 AM 57.2 °F 55.4 °F 94% 29.95 in 6.2 mi SW 12.7 mph - N/A   Mostly Cloudy
1:00 AM 58 °F 55 °F 85% 29.93 in 7 mi SW 11.5 mph - -   Mostly Cloudy
2:00 AM 57 °F 55 °F 90% 29.93 in - SW 11.5 mph - -  
3:00 AM 58 °F 54 °F 83% 29.92 in - SW 12.7 mph - -  
4:00 AM 58 °F 54 °F 81% 29.91 in 7 mi SW 12.7 mph - -   Overcast
5:00 AM 58 °F 54 °F 81% 29.90 in - SW 12.7 mph - -  
5:30 AM 59.0 °F 53.6 °F 82% 29.89 in 6.2 mi SW 13.8 mph - N/A   Overcast
6:00 AM 58 °F 53 °F 80% 29.89 in - SW 12.7 mph - -  
6:00 AM 59.0 °F 53.6 °F 82% 29.89 in 6.2 mi SW 12.7 mph - N/A   Overcast
6:30 AM 59.0 °F 53.6 °F 82% 29.89 in 6.2 mi SW 11.5 mph - N/A   Overcast
7:00 AM 58 °F 54 °F 83% 29.89 in 7 mi SW 12.7 mph - -   Overcast
7:00 AM 59.0 °F 55.4 °F 88% 29.89 in 6.2 mi SW 12.7 mph - N/A   Overcast
7:30 AM 57.2 °F 53.6 °F 88% 29.89 in 6.2 mi SW 12.7 mph - N/A   Mostly Cloudy
8:00 AM 58 °F 54 °F 83% 29.89 in - SW 12.7 mph - -  
8:00 AM 59.0 °F 55.4 °F 88% 29.89 in 6.2 mi SW 11.5 mph - N/A   Mostly Cloudy
8:30 AM 59.0 °F 55.4 °F 88% 29.89 in 6.2 mi SW 12.7 mph - N/A   Mostly Cloudy
9:00 AM 58 °F 55 °F 85% 29.90 in - SW 13.8 mph - -  
9:00 AM 59.0 °F 55.4 °F 88% 29.89 in 6.2 mi SW 13.8 mph - N/A   Mostly Cloudy
9:30 AM 59.0 °F 55.4 °F 88% 29.89 in 6.2 mi SW 12.7 mph - N/A   Mostly Cloudy
10:00 AM 59 °F 55 °F 84% 29.90 in 7 mi SW 11.5 mph - -   Mostly Cloudy
10:00 AM 59.0 °F 55.4 °F 88% 29.89 in 6.2 mi SW 11.5 mph - N/A   Mostly Cloudy
10:30 AM 59.0 °F 55.4 °F 88% 29.89 in 6.2 mi SW 13.8 mph - N/A   Mostly Cloudy
11:00 AM 62 °F 56 °F 76% 29.91 in - SW 11.5 mph - -  
11:00 AM 60.8 °F 55.4 °F 82% 29.89 in 6.2 mi SW 12.7 mph - N/A   Mostly Cloudy
11:30 AM 60.8 °F 55.4 °F 82% 29.89 in 6.2 mi SW 12.7 mph - N/A   Mostly Cloudy
12:00 PM 62 °F 56 °F 74% 29.89 in - SW 16.1 mph - -   Unknown Precipitation
12:00 PM 60.8 °F 57.2 °F 88% 29.89 in 6.2 mi SW 15.0 mph - N/A   Mostly Cloudy
12:30 PM 60.8 °F 57.2 °F 88% 29.89 in 6.2 mi SW 15.0 mph - N/A   Mostly Cloudy
1:00 PM 61 °F 56 °F 80% 29.88 in 7 mi SW 13.8 mph - - Rain Light Drizzle
1:00 PM 59.0 °F 57.2 °F 94% 29.86 in 6.2 mi SW 12.7 mph - N/A   Mostly Cloudy
1:30 PM 60.8 °F 55.4 °F 82% 29.86 in 6.2 mi SW 12.7 mph - N/A   Mostly Cloudy
2:00 PM 61 °F 56 °F 79% 29.85 in - SW 12.7 mph - -  
2:00 PM 60.8 °F 57.2 °F 88% 29.83 in 6.2 mi SW 12.7 mph - N/A   Mostly Cloudy
2:30 PM 60.8 °F 57.2 °F 88% 29.83 in 6.2 mi SW 10.4 mph - N/A   Mostly Cloudy
3:00 PM 62 °F 57 °F 78% 29.83 in - SW 12.7 mph - -  
3:00 PM 60.8 °F 57.2 °F 88% 29.83 in 6.2 mi SW 11.5 mph - N/A   Mostly Cloudy
3:30 PM 60.8 °F 57.2 °F 88% 29.83 in 6.2 mi SW 11.5 mph - N/A   Mostly Cloudy
4:00 PM 60 °F 56 °F 83% 29.83 in 6 mi SW 11.5 mph - -   Mostly Cloudy
4:00 PM 60.8 °F 57.2 °F 88% 29.83 in 6.2 mi SW 11.5 mph - N/A   Mostly Cloudy
4:30 PM 59.0 °F 55.4 °F 88% 29.83 in 6.2 mi SW 15.0 mph - N/A   Scattered Clouds
5:00 PM 59 °F 55 °F 82% 29.83 in - SW 11.5 mph - -  
5:00 PM 59.0 °F 55.4 °F 88% 29.80 in 6.2 mi SW 11.5 mph - N/A   Scattered Clouds
5:30 PM 59.0 °F 55.4 °F 88% 29.83 in 6.2 mi SW 5.8 mph - N/A   Partly Cloudy
6:00 PM 58 °F 56 °F 89% 29.83 in - Calm Calm - -  
6:00 PM 57.2 °F 55.4 °F 94% 29.83 in 5.0 mi WSW 6.9 mph - N/A Rain Rain
6:30 PM 57.2 °F 57.2 °F 100% 29.83 in 5.0 mi Calm Calm - N/A Rain Rain
7:00 PM 58 °F 56 °F 90% 29.83 in 5 mi West 1.2 mph - - Rain Light Rain
7:00 PM 57.2 °F 55.4 °F 94% 29.83 in 5.0 mi Calm Calm - N/A Rain Light Rain
7:30 PM 59.0 °F 57.2 °F 94% 29.83 in 5.0 mi Variable 1.2 mph 13.8 mph N/A Rain Rain
8:00 PM 58 °F 56 °F 93% 29.84 in - SW 10.4 mph - -   Unknown Precipitation
8:00 PM 59.0 °F 57.2 °F 94% 29.83 in 5.0 mi SW 9.2 mph - N/A Rain Rain
8:30 PM 57.2 °F 57.2 °F 100% 29.83 in 3.7 mi SW 6.9 mph - N/A Rain Rain
9:00 PM 57 °F 56 °F 94% 29.85 in - WSW 13.8 mph - -   Unknown Precipitation
9:00 PM 57.2 °F 55.4 °F 94% 29.83 in 3.7 mi WSW 12.7 mph - N/A Rain Rain
9:30 PM 57.2 °F 57.2 °F 100% 29.83 in 5.0 mi WSW 6.9 mph - N/A Rain Rain
10:00 PM 58 °F 56 °F 91% 29.84 in 5 mi SW 10.4 mph - - Rain Light Rain
10:00 PM 57.2 °F 57.2 °F 100% 29.83 in 5.0 mi SW 6.9 mph - N/A Rain Light Rain
10:30 PM 57.2 °F 57.2 °F 100% 29.83 in 5.0 mi WSW 9.2 mph - N/A   Scattered Clouds
11:00 PM 58 °F 56 °F 91% 29.83 in - Calm Calm - -   Unknown Precipitation
11:00 PM 57.2 °F 57.2 °F 100% 29.83 in 4.3 mi Variable 2.3 mph 16.1 mph N/A Rain Rain
11:30 PM 57.2 °F 55.4 °F 94% 29.83 in 4.3 mi WSW 11.5 mph - N/A Rain Rain